This is the latest recevied weather packets stored in our database for station/object AF9W-5. If no packets are shown the sender has not sent any weather packets the latest 10 day(s).
| Time | Temp. | Humidity | Pressure | Rain* | Wind** | Luminosity | Snow |
|---|---|---|---|---|---|---|---|
| 1777587021 | 28.33° C | 17% | 1006.7 hPa | 0 mm | - | 620 W/m² | - |
| 1777586717 | 29.44° C | 16% | 1006.9 hPa | 0 mm | - | 602 W/m² | - |
| 1777586414 | 29.44° C | 17% | 1006.9 hPa | 0 mm | - | 622 W/m² | - |
| 1777586114 | 29.44° C | 17% | 1007.1 hPa | 0 mm | - | 655 W/m² | - |
| 1777585812 | 28.89° C | 17% | 1007.3 hPa | 0 mm | - | 770 W/m² | - |
| 1777585511 | 28.89° C | 17% | 1007.4 hPa | 0 mm | - | 795 W/m² | - |
| 1777585207 | 28.33° C | 16% | 1007.6 hPa | 0 mm | - | 892 W/m² | - |
| 1777584903 | 27.22° C | 18% | 1007.7 hPa | 0 mm | - | 299 W/m² | - |
| 1777584600 | 27.78° C | 17% | 1007.6 hPa | 0 mm | - | 250 W/m² | - |
| 1777584297 | 27.22° C | 17% | 1007.6 hPa | 0 mm | - | 274 W/m² | - |
| 1777583993 | 28.33° C | 17% | 1007.8 hPa | 0 mm | - | 236 W/m² | - |
| 1777583693 | 28.89° C | 17% | 1007.6 hPa | 0 mm | - | 330 W/m² | - |
| 1777583392 | 28.33° C | 17% | 1008 hPa | 0 mm | - | 399 W/m² | - |
| 1777583091 | 28.33° C | 18% | 1008.1 hPa | 0 mm | - | 399 W/m² | - |
| 1777582788 | 28.33° C | 18% | 1007.8 hPa | 0 mm | - | 768 W/m² | - |
| 1777582484 | 27.78° C | 18% | 1008.6 hPa | 0 mm | - | 762 W/m² | - |
| 1777582179 | 28.33° C | 18% | 1008.2 hPa | 0 mm | - | 234 W/m² | - |
| 1777581877 | 29.44° C | 17% | 1008.4 hPa | 0 mm | - | 970 W/m² | - |
| 1777581572 | 28.89° C | 17% | 1008.4 hPa | 0 mm | - | 991 W/m² | - |
| 1777581267 | 30° C | 17% | 1008.6 hPa | 0 mm | - | 507 W/m² | - |
| 1777580963 | 29.44° C | 17% | 1008.5 hPa | 0 mm | - | 968 W/m² | - |
| 1777580663 | 28.89° C | 17% | 1008.6 hPa | 0 mm | - | 1096 W/m² | - |
| 1777580358 | 27.78° C | 18% | 1008.4 hPa | 0 mm | - | 1117 W/m² | - |
| 1777580055 | 29.44° C | 17% | 1008.8 hPa | 0 mm | - | 544 W/m² | - |
| 1777579751 | 28.33° C | 19% | 1008.5 hPa | 0 mm | - | 1072 W/m² | - |
* Rain latest hour (hover to see other rain measurements)
** Current wind speed in m/s (hover to see current wind gust speed)